Погода в Дачном

Россия / Свердловская область     58°24′12″N   59°55′29″E
темп.,
°C
ветер,
м/с
пор.,
м/с
влажн.,
%
обл.,
%
осадки,
мм/ч
давл.,
гПа
погр.,
м
2 марта, вт
вт223:00−17юз36946 0.0 1014130
02:00−18юз39950 0.0 1012213
05:00−18юз310946 0.0 1009290
08:00−15ююз4119096 0.0 1005424
11:00−12ююз5118698 0.0 1003507
14:00−10ююз61289100 0.2 1001733
17:00−9юз51186100 0.4 999895
20:00−11юз41188100 0.0 998640
3 марта, ср
ср323:00−11юз41188100 0.0 998596
02:00−13ююз389396 0.0 996204
05:00−13ююз379490 0.0 995142
08:00−9юз3895100 0.3 994393
11:00−6юз3789100 0.6 993401
14:00−1зюз4884100 0.1 993764
17:00−2з488495 0.1 994754
20:00−6зюз399178 0.0 995200
4 марта, чт
чт423:00−8зюз369459 0.0 997111
02:00−9юз2595100 0.0 996100
05:00−9зюз2395100 0.0 99576
08:00−9зюз2294100 0.1 99446
11:00−6з3686100 0.1 995422
14:00−5з4778100 0.0 9941040
17:00−6зюз4781100 0.1 995870
20:00−10юз379399 0.0 995162
5 марта, пт
пт523:00−10ююз399397 0.0 996290
02:00−11ю2695100 0.0 993161
05:00−9юв2496100 0.6 991197
08:00−9всв1297100 1.3 99176
11:00−6зсз238996 1.5 993363
14:00−3юз248299 0.0 995801
17:00−3зюз378397 1.0 996824
20:00−8зюз4119062 0.3 998318
6 марта, сб
сб623:00−11з389242 0.3 999163
02:00−13з489045 0.0 1001201
05:00−14з5118722 0.0 1004316
08:00−15з4118728 0.0 1006327
11:00−13з598559 0.0 1007444
14:00−10з598245 0.0 1008636
17:00−11з598351 0.0 1009707
20:00−14зюз3109096 0.0 1009449